| time (UTC) | temp F | wind direction | speed MPH | gust MPH | rain 1hr in | rain 24hr in | rain mn in | humidity % | barometer mb |
| 20260903224537 | 48 | 20 | 0.0 | 3.0 | 0.00 | 0.03 | 0.00 | 88 | 1019.9 |
| 20260903224027 | 47 | 65 | 1.0 | 3.0 | 0.00 | 0.03 | 0.00 | 90 | 1019.9 |
| 20260903223526 | 47 | 65 | 1.0 | 3.0 | 0.00 | 0.03 | 0.00 | 90 | 1019.9 |
| 20260903223021 | 46 | 69 | 1.0 | 3.0 | 0.00 | 0.03 | 0.00 | 91 | 1020.0 |
| 20260903222521 | 45 | 67 | 0.0 | 3.0 | 0.00 | 0.03 | 0.00 | 91 | 1020.2 |
| 20260903222019 | 45 | 12 | 1.0 | 3.0 | 0.00 | 0.03 | 0.00 | 92 | 1020.2 |
| 20260903221517 | 44 | 321 | 0.0 | 3.0 | 0.00 | 0.03 | 0.00 | 91 | 1020.3 |
| 20260903221019 | 43 | 320 | 0.0 | 1.0 | 0.00 | 0.03 | 0.00 | 91 | 1020.2 |
| 20260903220514 | 42 | 320 | 0.0 | 2.0 | 0.00 | 0.03 | 0.00 | 91 | 1020.0 |
| 20260903220013 | 42 | 348 | 0.0 | 3.0 | 0.00 | 0.03 | 0.00 | 91 | 1020.0 |
| 20260903215512 | 41 | 341 | 1.0 | 3.0 | 0.00 | 0.03 | 0.00 | 91 | 1019.8 |
| 20260903215011 | 40 | 324 | 0.0 | 0.0 | 0.00 | 0.03 | 0.00 | 90 | 1019.7 |
| 20260903214508 | 39 | 324 | 0.0 | 1.0 | 0.00 | 0.03 | 0.00 | 89 | 1019.6 |
| 20260903214008 | 39 | 324 | 0.0 | 1.0 | 0.00 | 0.03 | 0.00 | 89 | 1019.5 |
| 20260903213512 | 39 | 324 | 0.0 | 1.0 | 0.00 | 0.03 | 0.00 | 89 | 1019.5 |
| 20260903213007 | 38 | 324 | 0.0 | 2.0 | 0.00 | 0.03 | 0.00 | 88 | 1019.5 |
| 20260903212506 | 38 | 324 | 0.0 | 2.0 | 0.00 | 0.03 | 0.00 | 88 | 1019.5 |
| 20260903212004 | 37 | 324 | 0.0 | 2.0 | 0.00 | 0.03 | 0.00 | 88 | 1019.4 |
| 20260903211503 | 37 | 324 | 0.0 | 2.0 | 0.00 | 0.03 | 0.00 | 87 | 1019.4 |
| 20260903211001 | 37 | 324 | 0.0 | 2.0 | 0.00 | 0.03 | 0.00 | 86 | 1019.4 |
| 20260903210600 | 37 | 324 | 0.0 | 2.0 | 0.00 | 0.03 | 0.00 | 86 | 1019.4 |
| 20260903210139 | 36 | 229 | 0.0 | 1.0 | 0.00 | 0.03 | 0.00 | 86 | 1019.3 |
| 20260903205602 | 36 | 229 | 0.0 | 1.0 | 0.00 | 0.03 | 0.00 | 86 | 1019.3 |
| 20260903205059 | 36 | 229 | 0.0 | 1.0 | 0.00 | 0.03 | 0.00 | 85 | 1019.3 |
| 20260903204604 | 36 | 229 | 0.0 | 1.0 | 0.00 | 0.03 | 0.00 | 85 | 1019.2 |
| 20260903204056 | 36 | 229 | 0.0 | 1.0 | 0.00 | 0.03 | 0.00 | 84 | 1019.1 |
| 20260903203056 | 36 | 229 | 0.0 | 1.0 | 0.00 | 0.03 | 0.00 | 84 | 1019.1 |
| 20260903202554 | 36 | 229 | 0.0 | 1.0 | 0.00 | 0.03 | 0.00 | 84 | 1019.1 |
| 20260903202054 | 37 | 229 | 0.0 | 1.0 | 0.00 | 0.03 | 0.00 | 84 | 1019.1 |
| 20260903201553 | 37 | 229 | 0.0 | 0.0 | 0.00 | 0.03 | 0.00 | 84 | 1019.1 |
| 20260903201053 | 37 | 229 | 0.0 | 0.0 | 0.00 | 0.03 | 0.00 | 84 | 1019.2 |
| 20260903200553 | 37 | 229 | 0.0 | 0.0 | 0.00 | 0.03 | 0.00 | 84 | 1019.3 |
| 20260903200105 | 37 | 229 | 0.0 | 0.0 | 0.00 | 0.03 | 0.00 | 84 | 1019.2 |
| 20260903195553 | 37 | 229 | 0.0 | 0.0 | 0.00 | 0.03 | 0.00 | 84 | 1019.2 |
| 20260903195052 | 37 | 229 | 0.0 | 0.0 | 0.00 | 0.03 | 0.00 | 84 | 1019.1 |
| 20260903194551 | 37 | 229 | 0.0 | 1.0 | 0.00 | 0.03 | 0.00 | 84 | 1019.0 |
| 20260903194049 | 37 | 229 | 0.0 | 1.0 | 0.00 | 0.03 | 0.00 | 84 | 1019.2 |
| 20260903193053 | 37 | 229 | 0.0 | 1.0 | 0.00 | 0.03 | 0.00 | 84 | 1019.1 |
| 20260903192550 | 37 | 229 | 0.0 | 1.0 | 0.00 | 0.03 | 0.00 | 84 | 1019.0 |
| 20260903192050 | 37 | 229 | 0.0 | 1.0 | 0.00 | 0.03 | 0.00 | 84 | 1018.9 |
| 20260903191600 | 38 | 229 | 0.0 | 1.0 | 0.00 | 0.03 | 0.00 | 84 | 1018.9 |
| 20260903191050 | 38 | 229 | 0.0 | 0.0 | 0.00 | 0.03 | 0.00 | 84 | 1018.8 |
| 20260903190548 | 38 | 229 | 0.0 | 1.0 | 0.00 | 0.03 | 0.00 | 84 | 1018.8 |
| 20260903190051 | 38 | 229 | 0.0 | 1.0 | 0.00 | 0.03 | 0.00 | 83 | 1018.8 |
| 20260903185547 | 38 | 229 | 0.0 | 1.0 | 0.00 | 0.03 | 0.00 | 84 | 1018.6 |
| 20260903185046 | 38 | 229 | 0.0 | 1.0 | 0.00 | 0.03 | 0.00 | 84 | 1018.7 |
| 20260903184547 | 38 | 229 | 0.0 | 0.0 | 0.00 | 0.03 | 0.00 | 84 | 1018.7 |
| 20260903184048 | 38 | 229 | 0.0 | 0.0 | 0.00 | 0.03 | 0.00 | 84 | 1018.7 |
| 20260903183053 | 38 | 229 | 0.0 | 0.0 | 0.00 | 0.03 | 0.00 | 83 | 1018.8 |
| 20260903182550 | 39 | 229 | 0.0 | 1.0 | 0.00 | 0.03 | 0.00 | 84 | 1018.8 |
| 20260903182047 | 39 | 229 | 0.0 | 1.0 | 0.00 | 0.03 | 0.00 | 83 | 1018.8 |
| 20260903181546 | 39 | 229 | 0.0 | 1.0 | 0.00 | 0.03 | 0.00 | 84 | 1018.8 |
| 20260903181045 | 39 | 229 | 0.0 | 0.0 | 0.00 | 0.03 | 0.00 | 84 | 1018.8 |
| 20260903180547 | 39 | 229 | 0.0 | 1.0 | 0.00 | 0.03 | 0.00 | 84 | 1018.8 |
| 20260903180046 | 39 | 229 | 0.0 | 1.0 | 0.00 | 0.03 | 0.00 | 83 | 1018.8 |
| 20260903175544 | 39 | 229 | 0.0 | 0.0 | 0.00 | 0.03 | 0.00 | 83 | 1018.8 |
| 20260903175045 | 39 | 229 | 0.0 | 1.0 | 0.00 | 0.03 | 0.00 | 83 | 1018.9 |
| 20260903174543 | 39 | 229 | 0.0 | 1.0 | 0.00 | 0.03 | 0.00 | 83 | 1018.9 |
| 20260903174042 | 39 | 229 | 0.0 | 0.0 | 0.00 | 0.03 | 0.00 | 83 | 1018.9 |
| 20260903173041 | 40 | 229 | 0.0 | 0.0 | 0.00 | 0.03 | 0.00 | 83 | 1019.0 |
| 20260903172543 | 40 | 229 | 0.0 | 0.0 | 0.00 | 0.03 | 0.00 | 84 | 1019.0 |
| 20260903172041 | 40 | 229 | 0.0 | 0.0 | 0.00 | 0.03 | 0.00 | 84 | 1019.0 |
| 20260903171547 | 40 | 229 | 0.0 | 0.0 | 0.00 | 0.03 | 0.00 | 83 | 1019.0 |
| 20260903171039 | 40 | 229 | 0.0 | 0.0 | 0.00 | 0.03 | 0.00 | 83 | 1019.0 |
| 20260903170538 | 40 | 229 | 0.0 | 0.0 | 0.00 | 0.03 | 0.00 | 84 | 1019.0 |
| 20260903170043 | 40 | 229 | 0.0 | 1.0 | 0.00 | 0.03 | 0.00 | 83 | 1019.0 |
| 20260903165537 | 40 | 229 | 0.0 | 2.0 | 0.00 | 0.03 | 0.00 | 83 | 1019.0 |
| 20260903165037 | 40 | 229 | 0.0 | 2.0 | 0.00 | 0.03 | 0.00 | 83 | 1019.1 |
| 20260903164536 | 40 | 297 | 0.0 | 1.0 | 0.00 | 0.03 | 0.00 | 82 | 1019.1 |
| 20260903164035 | 40 | 297 | 0.0 | 1.0 | 0.00 | 0.03 | 0.00 | 82 | 1019.2 |
| 20260903163038 | 40 | 297 | 0.0 | 0.0 | 0.00 | 0.03 | 0.00 | 82 | 1019.2 |
| 20260903162532 | 40 | 297 | 0.0 | 0.0 | 0.00 | 0.03 | 0.00 | 81 | 1019.3 |
| 20260903162032 | 41 | 297 | 0.0 | 0.0 | 0.00 | 0.03 | 0.00 | 81 | 1019.4 |
| 20260903161531 | 41 | 297 | 0.0 | 0.0 | 0.00 | 0.03 | 0.00 | 81 | 1019.5 |
| 20260903161031 | 41 | 297 | 0.0 | 1.0 | 0.00 | 0.03 | 0.00 | 81 | 1019.5 |
| 20260903160530 | 41 | 297 | 0.0 | 1.0 | 0.00 | 0.03 | 0.00 | 81 | 1019.6 |
| 20260903160029 | 41 | 297 | 0.0 | 0.0 | 0.00 | 0.03 | 0.00 | 81 | 1019.6 |
| 20260903155531 | 41 | 297 | 0.0 | 1.0 | 0.00 | 0.03 | 0.00 | 81 | 1019.6 |
| 20260903155035 | 41 | 297 | 0.0 | 1.0 | 0.00 | 0.03 | 0.00 | 80 | 1019.7 |
| 20260903154527 | 41 | 297 | 0.0 | 0.0 | 0.00 | 0.03 | 0.00 | 80 | 1019.6 |
| 20260903154026 | 42 | 297 | 0.0 | 0.0 | 0.00 | 0.03 | 0.00 | 80 | 1019.6 |
| 20260903153026 | 42 | 297 | 0.0 | 0.0 | 0.00 | 0.03 | 0.00 | 80 | 1019.6 |
| 20260903152525 | 42 | 297 | 0.0 | 0.0 | 0.00 | 0.03 | 0.00 | 80 | 1019.6 |
| 20260903152023 | 42 | 297 | 0.0 | 1.0 | 0.00 | 0.03 | 0.00 | 79 | 1019.6 |
| 20260903151523 | 42 | 297 | 0.0 | 1.0 | 0.00 | 0.03 | 0.00 | 79 | 1019.7 |
| 20260903151022 | 43 | 297 | 0.0 | 1.0 | 0.00 | 0.03 | 0.00 | 79 | 1019.7 |
| 20260903150520 | 43 | 297 | 0.0 | 1.0 | 0.00 | 0.03 | 0.00 | 79 | 1019.6 |
| 20260903150034 | 43 | 297 | 0.0 | 0.0 | 0.00 | 0.03 | 0.00 | 78 | 1019.7 |
| 20260903145520 | 43 | 297 | 0.0 | 1.0 | 0.00 | 0.03 | 0.00 | 78 | 1019.6 |
| 20260903145018 | 43 | 297 | 0.0 | 1.0 | 0.00 | 0.03 | 0.00 | 78 | 1019.7 |
| 20260903144517 | 43 | 297 | 0.0 | 1.0 | 0.00 | 0.03 | 0.00 | 78 | 1019.6 |
| 20260903144017 | 44 | 297 | 0.0 | 0.0 | 0.00 | 0.03 | 0.00 | 77 | 1019.7 |
| 20260903143017 | 44 | 297 | 0.0 | 0.0 | 0.00 | 0.03 | 0.00 | 76 | 1019.7 |
| 20260903142513 | 44 | 297 | 0.0 | 0.0 | 0.00 | 0.03 | 0.00 | 76 | 1019.7 |
| 20260903142011 | 45 | 298 | 0.0 | 0.0 | 0.00 | 0.03 | 0.00 | 76 | 1019.7 |
| 20260903141515 | 45 | 298 | 0.0 | 0.0 | 0.00 | 0.03 | 0.00 | 76 | 1019.7 |
| 20260903141012 | 45 | 297 | 0.0 | 0.0 | 0.00 | 0.03 | 0.00 | 75 | 1019.7 |
| 20260903140508 | 45 | 297 | 0.0 | 0.0 | 0.00 | 0.03 | 0.00 | 75 | 1019.8 |
| 20260903140008 | 45 | 297 | 0.0 | 0.0 | 0.00 | 0.03 | 0.03 | 75 | 1019.9 |
| 20260903135511 | 45 | 298 | 0.0 | 1.0 | 0.00 | 0.03 | 0.03 | 75 | 1019.9 |
| 20260903135007 | 46 | 298 | 0.0 | 1.0 | 0.00 | 0.03 | 0.03 | 75 | 1019.9 |
| 20260903134507 | 46 | 298 | 0.0 | 1.0 | 0.00 | 0.03 | 0.03 | 74 | 1019.9 |
| 20260903134006 | 46 | 298 | 0.0 | 1.0 | 0.00 | 0.03 | 0.03 | 74 | 1019.9 |
| 20260903133009 | 46 | 297 | 0.0 | 0.0 | 0.00 | 0.03 | 0.03 | 74 | 1019.9 |
| 20260903132509 | 46 | 298 | 0.0 | 1.0 | 0.00 | 0.03 | 0.03 | 74 | 1019.9 |
| 20260903132008 | 47 | 298 | 0.0 | 2.0 | 0.00 | 0.03 | 0.03 | 74 | 1019.8 |
| 20260903131509 | 47 | 298 | 0.0 | 2.0 | 0.00 | 0.03 | 0.03 | 74 | 1019.9 |
| 20260903131009 | 47 | 298 | 0.0 | 1.0 | 0.00 | 0.03 | 0.03 | 74 | 1019.9 |
| 20260903130508 | 47 | 298 | 0.0 | 1.0 | 0.00 | 0.03 | 0.03 | 74 | 1020.0 |
| 20260903130008 | 47 | 265 | 0.0 | 1.0 | 0.00 | 0.03 | 0.03 | 74 | 1020.0 |
| 20260903125508 | 48 | 265 | 0.0 | 1.0 | 0.00 | 0.03 | 0.03 | 74 | 1019.9 |
| 20260903125008 | 48 | 265 | 0.0 | 2.0 | 0.00 | 0.03 | 0.03 | 74 | 1019.9 |
| 20260903124511 | 48 | 265 | 0.0 | 2.0 | 0.00 | 0.03 | 0.03 | 74 | 1019.9 |
| 20260903124007 | 48 | 355 | 0.0 | 2.0 | 0.00 | 0.03 | 0.03 | 74 | 1019.9 |
| 20260903123007 | 48 | 9 | 0.0 | 3.0 | 0.00 | 0.03 | 0.03 | 74 | 1019.9 |
| 20260903122509 | 48 | 288 | 0.0 | 3.0 | 0.00 | 0.03 | 0.03 | 74 | 1019.8 |
| 20260903122006 | 48 | 286 | 0.0 | 3.0 | 0.00 | 0.03 | 0.03 | 73 | 1019.7 |
| 20260903121508 | 49 | 286 | 0.0 | 3.0 | 0.00 | 0.03 | 0.03 | 73 | 1019.6 |
| 20260903121009 | 49 | 288 | 0.0 | 2.0 | 0.00 | 0.03 | 0.03 | 73 | 1019.6 |
| 20260903120505 | 49 | 303 | 0.0 | 2.0 | 0.00 | 0.03 | 0.03 | 73 | 1019.6 |
| 20260903120005 | 49 | 303 | 0.0 | 2.0 | 0.00 | 0.03 | 0.03 | 72 | 1019.5 |
| 20260903115505 | 49 | 303 | 0.0 | 3.0 | 0.00 | 0.03 | 0.03 | 72 | 1019.4 |
| 20260903115003 | 49 | 303 | 0.0 | 3.0 | 0.00 | 0.03 | 0.03 | 72 | 1019.4 |
| 20260903114504 | 49 | 284 | 1.0 | 3.0 | 0.00 | 0.03 | 0.03 | 71 | 1019.4 |
| 20260903114002 | 50 | 281 | 0.0 | 2.0 | 0.00 | 0.03 | 0.03 | 71 | 1019.3 |
| 20260903113004 | 50 | 281 | 0.0 | 2.0 | 0.00 | 0.03 | 0.03 | 70 | 1019.2 |
| 20260903112504 | 50 | 281 | 1.0 | 2.0 | 0.00 | 0.03 | 0.03 | 70 | 1019.2 |
| 20260903112006 | 51 | 269 | 0.0 | 2.0 | 0.00 | 0.03 | 0.03 | 69 | 1019.3 |
| 20260903111503 | 51 | 269 | 0.0 | 1.0 | 0.00 | 0.03 | 0.03 | 69 | 1019.2 |
| 20260903111003 | 51 | 269 | 0.0 | 1.0 | 0.00 | 0.03 | 0.03 | 69 | 1019.1 |
| 20260903110503 | 51 | 269 | 0.0 | 1.0 | 0.00 | 0.03 | 0.03 | 69 | 1019.0 |
| 20260903110002 | 51 | 269 | 0.0 | 2.0 | 0.00 | 0.03 | 0.03 | 69 | 1019.0 |
| 20260903105503 | 52 | 269 | 0.0 | 1.0 | 0.00 | 0.03 | 0.03 | 69 | 1019.0 |
| 20260903105102 | 52 | 269 | 0.0 | 2.0 | 0.00 | 0.03 | 0.03 | 68 | 1018.9 |
| 20260903104601 | 52 | 269 | 0.0 | 3.0 | 0.00 | 0.03 | 0.03 | 68 | 1018.9 |
| 20260903104059 | 52 | 269 | 0.0 | 3.0 | 0.00 | 0.03 | 0.03 | 68 | 1018.7 |
| 20260903103001 | 53 | 279 | 0.0 | 2.0 | 0.00 | 0.03 | 0.03 | 67 | 1018.5 |
| 20260903102559 | 53 | 303 | 1.0 | 2.0 | 0.00 | 0.03 | 0.03 | 67 | 1018.4 |
| 20260903102059 | 53 | 306 | 1.0 | 3.0 | 0.00 | 0.03 | 0.03 | 67 | 1018.3 |
| 20260903101603 | 54 | 346 | 0.0 | 3.0 | 0.00 | 0.03 | 0.03 | 66 | 1018.2 |
| 20260903101059 | 54 | 346 | 1.0 | 3.0 | 0.00 | 0.03 | 0.03 | 65 | 1018.2 |
| 20260903100558 | 54 | 254 | 0.0 | 1.0 | 0.00 | 0.03 | 0.03 | 64 | 1018.1 |
| 20260903100057 | 55 | 254 | 0.0 | 1.0 | 0.00 | 0.03 | 0.03 | 64 | 1018.0 |
| 20260903095600 | 55 | 254 | 0.0 | 1.0 | 0.00 | 0.03 | 0.03 | 64 | 1018.0 |
| 20260903095056 | 55 | 254 | 0.0 | 1.0 | 0.00 | 0.03 | 0.03 | 64 | 1017.9 |
| 20260903094639 | 55 | 254 | 0.0 | 1.0 | 0.00 | 0.03 | 0.03 | 63 | 1017.8 |
| 20260903094055 | 56 | 254 | 0.0 | 1.0 | 0.00 | 0.03 | 0.03 | 63 | 1017.7 |
| 20260903093050 | 56 | 254 | 0.0 | 0.0 | 0.00 | 0.03 | 0.03 | 63 | 1017.8 |
| 20260903092550 | 56 | 254 | 0.0 | 0.0 | 0.00 | 0.03 | 0.03 | 63 | 1017.8 |
| 20260903092049 | 56 | 254 | 0.0 | 3.0 | 0.00 | 0.03 | 0.03 | 63 | 1017.6 |
| 20260903091546 | 56 | 254 | 0.0 | 4.0 | 0.00 | 0.03 | 0.03 | 63 | 1017.6 |
| 20260903091045 | 57 | 254 | 1.0 | 4.0 | 0.00 | 0.03 | 0.03 | 62 | 1017.5 |
| 20260903090544 | 57 | 262 | 1.0 | 6.0 | 0.00 | 0.03 | 0.03 | 62 | 1017.4 |
| 20260903090044 | 57 | 278 | 2.0 | 7.0 | 0.00 | 0.03 | 0.03 | 61 | 1017.3 |
| 20260903085542 | 57 | 254 | 2.0 | 7.0 | 0.00 | 0.03 | 0.03 | 60 | 1017.3 |
| 20260903085042 | 57 | 206 | 1.0 | 7.0 | 0.00 | 0.03 | 0.03 | 59 | 1017.1 |
| 20260903084544 | 57 | 257 | 0.0 | 6.0 | 0.00 | 0.03 | 0.03 | 59 | 1017.1 |
| 20260903084040 | 57 | 269 | 1.0 | 7.0 | 0.00 | 0.03 | 0.03 | 58 | 1016.9 |
| 20260903083045 | 58 | 265 | 1.0 | 7.0 | 0.00 | 0.03 | 0.03 | 57 | 1016.8 |
| 20260903082544 | 58 | 248 | 2.0 | 7.0 | 0.00 | 0.03 | 0.03 | 57 | 1016.6 |
| 20260903082043 | 58 | 264 | 2.0 | 6.0 | 0.00 | 0.03 | 0.03 | 57 | 1016.5 |
| 20260903081543 | 59 | 258 | 2.0 | 8.0 | 0.00 | 0.03 | 0.03 | 56 | 1016.5 |
| 20260903081041 | 59 | 273 | 2.0 | 8.0 | 0.00 | 0.03 | 0.03 | 56 | 1016.4 |
| 20260903080541 | 60 | 242 | 1.0 | 2.0 | 0.00 | 0.03 | 0.03 | 57 | 1016.4 |
| 20260903080055 | 60 | 257 | 0.0 | 2.0 | 0.00 | 0.03 | 0.03 | 57 | 1016.3 |
| 20260903075540 | 60 | 257 | 0.0 | 3.0 | 0.00 | 0.03 | 0.03 | 57 | 1016.2 |
| 20260903075038 | 60 | 257 | 1.0 | 3.0 | 0.00 | 0.03 | 0.03 | 56 | 1016.2 |
| 20260903074537 | 61 | 263 | 1.0 | 4.0 | 0.00 | 0.03 | 0.03 | 56 | 1016.1 |
| 20260903074036 | 61 | 229 | 1.0 | 4.0 | 0.00 | 0.03 | 0.03 | 54 | 1016.0 |
| 20260903073033 | 61 | 222 | 3.0 | 9.0 | 0.00 | 0.03 | 0.03 | 53 | 1015.7 |
| 20260903072531 | 62 | 251 | 1.0 | 9.0 | 0.00 | 0.03 | 0.03 | 51 | 1015.6 |
| 20260903072032 | 62 | 205 | 4.0 | 11.0 | 0.00 | 0.03 | 0.03 | 50 | 1015.6 |
| 20260903071530 | 62 | 260 | 4.0 | 10.0 | 0.00 | 0.03 | 0.03 | 49 | 1015.5 |
| 20260903071028 | 62 | 274 | 3.0 | 10.0 | 0.00 | 0.03 | 0.03 | 48 | 1015.4 |
| 20260903070528 | 62 | 273 | 3.0 | 11.0 | 0.00 | 0.03 | 0.03 | 48 | 1015.3 |
| 20260903070028 | 62 | 254 | 4.0 | 11.0 | 0.00 | 0.03 | 0.03 | 47 | 1015.3 |
| 20260903065527 | 63 | 276 | 5.0 | 12.0 | 0.00 | 0.03 | 0.03 | 47 | 1015.2 |
| 20260903065026 | 63 | 266 | 4.0 | 13.0 | 0.00 | 0.03 | 0.03 | 46 | 1015.1 |
| 20260903064526 | 63 | 241 | 4.0 | 13.0 | 0.00 | 0.03 | 0.03 | 46 | 1015.1 |
| 20260903064025 | 63 | 236 | 5.0 | 12.0 | 0.00 | 0.03 | 0.03 | 46 | 1015.0 |
| 20260903063022 | 64 | 204 | 6.0 | 12.0 | 0.00 | 0.03 | 0.03 | 44 | 1014.7 |
| 20260903062522 | 64 | 258 | 5.0 | 15.0 | 0.00 | 0.03 | 0.03 | 44 | 1014.7 |
| 20260903062021 | 64 | 283 | 5.0 | 15.0 | 0.00 | 0.03 | 0.03 | 43 | 1014.6 |
| 20260903061521 | 64 | 273 | 6.0 | 12.0 | 0.00 | 0.03 | 0.03 | 43 | 1014.6 |
| 20260903061021 | 64 | 269 | 6.0 | 13.0 | 0.00 | 0.03 | 0.03 | 43 | 1014.5 |
| 20260903060520 | 64 | 286 | 6.0 | 13.0 | 0.00 | 0.03 | 0.03 | 43 | 1014.3 |
| 20260903060020 | 64 | 249 | 5.0 | 13.0 | 0.00 | 0.03 | 0.03 | 43 | 1014.4 |
| 20260903055519 | 64 | 261 | 5.0 | 13.0 | 0.00 | 0.03 | 0.03 | 44 | 1014.3 |
| 20260903055018 | 64 | 292 | 6.0 | 13.0 | 0.00 | 0.03 | 0.03 | 45 | 1014.2 |
| 20260903054518 | 64 | 269 | 6.0 | 15.0 | 0.00 | 0.03 | 0.03 | 45 | 1014.2 |
| 20260903054018 | 63 | 269 | 10.0 | 24.0 | 0.00 | 0.03 | 0.03 | 45 | 1014.2 |
| 20260903053020 | 64 | 263 | 10.0 | 15.0 | 0.00 | 0.03 | 0.03 | 44 | 1014.1 |
| 20260903052521 | 64 | 270 | 8.0 | 16.0 | 0.00 | 0.03 | 0.03 | 44 | 1014.0 |
| 20260903052020 | 64 | 254 | 6.0 | 16.0 | 0.00 | 0.03 | 0.03 | 46 | 1013.9 |
| 20260903051520 | 64 | 288 | 6.0 | 16.0 | 0.00 | 0.03 | 0.03 | 46 | 1013.8 |
| 20260903051018 | 64 | 294 | 8.0 | 18.0 | 0.00 | 0.03 | 0.03 | 46 | 1013.9 |
| 20260903050519 | 64 | 297 | 10.0 | 18.0 | 0.00 | 0.03 | 0.03 | 45 | 1013.9 |
| 20260903050023 | 65 | 278 | 9.0 | 20.0 | 0.00 | 0.03 | 0.03 | 45 | 1013.8 |
| 20260903045518 | 65 | 271 | 6.0 | 20.0 | 0.00 | 0.03 | 0.03 | 45 | 1013.7 |
| 20260903045016 | 65 | 271 | 9.0 | 15.0 | 0.00 | 0.03 | 0.03 | 45 | 1013.7 |
| 20260903044522 | 65 | 274 | 5.0 | 21.0 | 0.00 | 0.03 | 0.03 | 46 | 1013.6 |
| 20260903044015 | 65 | 284 | 7.0 | 15.0 | 0.00 | 0.03 | 0.03 | 48 | 1013.7 |
| 20260903043017 | 64 | 247 | 7.0 | 15.0 | 0.00 | 0.03 | 0.03 | 52 | 1013.5 |
| 20260903042514 | 64 | 275 | 5.0 | 15.0 | 0.00 | 0.03 | 0.03 | 53 | 1013.6 |
| 20260903042014 | 64 | 216 | 5.0 | 16.0 | 0.00 | 0.03 | 0.03 | 54 | 1013.6 |
| 20260903041515 | 64 | 235 | 7.0 | 16.0 | 0.00 | 0.03 | 0.03 | 53 | 1013.5 |
| 20260903041013 | 65 | 285 | 6.0 | 14.0 | 0.00 | 0.03 | 0.03 | 52 | 1013.4 |
| 20260903040512 | 65 | 239 | 7.0 | 19.0 | 0.00 | 0.03 | 0.03 | 53 | 1013.3 |
| 20260903040012 | 65 | 240 | 7.0 | 19.0 | 0.00 | 0.03 | 0.03 | 48 | 1013.3 |
| 20260903035511 | 64 | 279 | 10.0 | 18.0 | 0.00 | 0.03 | 0.03 | 49 | 1013.1 |
| 20260903035011 | 64 | 288 | 7.0 | 19.0 | 0.00 | 0.03 | 0.03 | 50 | 1013.1 |
| 20260903034511 | 64 | 256 | 7.0 | 19.0 | 0.00 | 0.03 | 0.03 | 50 | 1013.0 |
| 20260903034010 | 64 | 249 | 9.0 | 21.0 | 0.00 | 0.03 | 0.03 | 49 | 1013.1 |
| 20260903033011 | 65 | 263 | 11.0 | 19.0 | 0.00 | 0.03 | 0.03 | 53 | 1012.9 |
| 20260903032509 | 64 | 155 | 7.0 | 19.0 | 0.00 | 0.03 | 0.03 | 59 | 1012.9 |
| 20260903032007 | 64 | 269 | 6.0 | 17.0 | 0.00 | 0.03 | 0.03 | 62 | 1013.0 |
| 20260903031507 | 63 | 309 | 6.0 | 20.0 | 0.00 | 0.03 | 0.03 | 61 | 1013.1 |
| 20260903031007 | 63 | 259 | 8.0 | 20.0 | 0.01 | 0.03 | 0.03 | 65 | 1013.1 |
| 20260903030509 | 62 | 275 | 5.0 | 16.0 | 0.03 | 0.03 | 0.03 | 67 | 1013.1 |
| 20260903030007 | 61 | 285 | 8.0 | 16.0 | 0.03 | 0.03 | 0.03 | 68 | 1013.1 |
| 20260903025506 | 60 | 253 | 7.0 | 14.0 | 0.03 | 0.03 | 0.03 | 70 | 1013.1 |
| 20260903025006 | 60 | 277 | 7.0 | 14.0 | 0.03 | 0.03 | 0.03 | 71 | 1013.2 |
| 20260903024506 | 60 | 255 | 7.0 | 16.0 | 0.03 | 0.03 | 0.03 | 74 | 1013.1 |
| 20260903024005 | 59 | 251 | 6.0 | 11.0 | 0.03 | 0.03 | 0.03 | 79 | 1013.1 |
| 20260903023008 | 58 | 297 | 5.0 | 12.0 | 0.03 | 0.03 | 0.03 | 79 | 1013.2 |
| 20260903022505 | 58 | 305 | 3.0 | 11.0 | 0.03 | 0.03 | 0.03 | 78 | 1013.2 |
| 20260903022005 | 58 | 275 | 6.0 | 16.0 | 0.03 | 0.03 | 0.03 | 75 | 1013.3 |
| 20260903021505 | 59 | 215 | 5.0 | 16.0 | 0.03 | 0.03 | 0.03 | 73 | 1013.2 |
| 20260903021004 | 60 | 249 | 6.0 | 20.0 | 0.03 | 0.03 | 0.03 | 70 | 1013.2 |
| 20260903020504 | 62 | 293 | 8.0 | 20.0 | 0.02 | 0.02 | 0.02 | 66 | 1013.0 |
| 20260903020003 | 63 | 283 | 5.0 | 13.0 | 0.00 | 0.00 | 0.00 | 61 | 1012.6 |
| 20260903015503 | 63 | 276 | 7.0 | 16.0 | 0.00 | 0.00 | 0.00 | 61 | 1012.5 |
| 20260903015002 | 63 | 253 | 9.0 | 25.0 | 0.00 | 0.00 | 0.00 | 60 | 1012.4 |
| 20260903014501 | 63 | 252 | 13.0 | 25.0 | 0.00 | 0.00 | 0.00 | 59 | 1012.4 |
| 20260903014101 | 63 | 292 | 10.0 | 21.0 | 0.00 | 0.00 | 0.00 | 61 | 1012.4 |
| 20260903013002 | 62 | 265 | 9.0 | 18.0 | 0.00 | 0.00 | 0.00 | 62 | 1012.4 |
| 20260903012500 | 62 | 273 | 11.0 | 18.0 | 0.00 | 0.00 | 0.00 | 61 | 1012.4 |
| 20260903012102 | 62 | 284 | 11.0 | 18.0 | 0.00 | 0.00 | 0.00 | 63 | 1012.4 |
| 20260903011558 | 61 | 286 | 9.0 | 21.0 | 0.00 | 0.00 | 0.00 | 64 | 1012.5 |
| 20260903011101 | 61 | 269 | 10.0 | 21.0 | 0.00 | 0.00 | 0.00 | 65 | 1012.4 |
| 20260903010555 | 61 | 273 | 9.0 | 21.0 | 0.00 | 0.00 | 0.00 | 69 | 1012.4 |
| 20260903010054 | 60 | 302 | 9.0 | 21.0 | 0.00 | 0.00 | 0.00 | 69 | 1012.4 |
| 20260903005554 | 60 | 291 | 9.0 | 15.0 | 0.00 | 0.00 | 0.00 | 71 | 1012.3 |
| 20260903005055 | 59 | 316 | 3.0 | 17.0 | 0.00 | 0.00 | 0.00 | 73 | 1012.2 |
| 20260903004556 | 59 | 312 | 7.0 | 17.0 | 0.00 | 0.00 | 0.00 | 72 | 1012.2 |
| 20260903004050 | 58 | 260 | 9.0 | 16.0 | 0.00 | 0.00 | 0.00 | 71 | 1012.2 |
| 20260903003051 | 58 | 275 | 10.0 | 20.0 | 0.00 | 0.00 | 0.00 | 73 | 1012.2 |
| 20260903002549 | 58 | 259 | 8.0 | 15.0 | 0.00 | 0.00 | 0.00 | 75 | 1012.2 |
| 20260903002049 | 58 | 291 | 6.0 | 15.0 | 0.00 | 0.00 | 0.00 | 77 | 1012.1 |
| 20260903001601 | 58 | 294 | 4.0 | 17.0 | 0.00 | 0.00 | 0.00 | 75 | 1012.3 |
| 20260903001047 | 58 | 296 | 6.0 | 23.0 | 0.00 | 0.00 | 0.00 | 73 | 1012.4 |
| 20260903000547 | 58 | 277 | 9.0 | 23.0 | 0.00 | 0.00 | 0.00 | 70 | 1012.4 |
| 20260903000046 | 59 | 282 | 6.0 | 14.0 | 0.00 | 0.00 | 0.00 | 71 | 1012.3 |
| 20260902235546 | 59 | 274 | 6.0 | 13.0 | 0.00 | 0.00 | 0.00 | 70 | 1012.2 |
| 20260902235045 | 59 | 292 | 4.0 | 13.0 | 0.00 | 0.00 | 0.00 | 70 | 1012.1 |
| 20260902234546 | 59 | 277 | 5.0 | 12.0 | 0.00 | 0.00 | 0.00 | 70 | 1012.0 |
| 20260902234042 | 59 | 251 | 5.0 | 12.0 | 0.00 | 0.00 | 0.00 | 70 | 1011.8 |
| 20260902233044 | 59 | 278 | 6.0 | 14.0 | 0.00 | 0.00 | 0.00 | 70 | 1011.6 |
| 20260902232542 | 59 | 296 | 6.0 | 14.0 | 0.00 | 0.00 | 0.00 | 71 | 1011.7 |
| 20260902232041 | 58 | 308 | 7.0 | 13.0 | 0.00 | 0.00 | 0.00 | 71 | 1011.6 |
| 20260902231542 | 58 | 242 | 5.0 | 13.0 | 0.00 | 0.00 | 0.00 | 72 | 1011.5 |
| 20260902231039 | 58 | 291 | 4.0 | 13.0 | 0.00 | 0.00 | 0.00 | 72 | 1011.5 |
| 20260902230537 | 57 | 274 | 5.0 | 10.0 | 0.00 | 0.00 | 0.00 | 72 | 1011.4 |
| 20260902230036 | 57 | 261 | 2.0 | 9.0 | 0.00 | 0.00 | 0.00 | 73 | 1011.4 |
| 20260902225535 | 57 | 28 | 3.0 | 10.0 | 0.00 | 0.00 | 0.00 | 73 | 1011.3 |
| 20260902225034 | 56 | 298 | 4.0 | 10.0 | 0.00 | 0.00 | 0.00 | 73 | 1011.3 |